| time (UTC) | temp C | wind direction | speed KPH | gust KPH | rain 1hr cm | rain 24hr cm | rain mn cm | humidity % | barometer mb |
| 20260503204503 | 11 | 246 | 6.4 | 12.9 | 0.00 | 0.05 | 0.05 | 91 | 1012.7 |
| 20260503203603 | 11 | 278 | 6.4 | 12.9 | 0.00 | 0.05 | 0.05 | 91 | 1012.6 |
| 20260503202703 | 11 | 285 | 6.4 | 12.9 | 0.00 | 0.05 | 0.05 | 91 | 1012.5 |
| 20260503201803 | 11 | 265 | 8.0 | 14.5 | 0.00 | 0.05 | 0.05 | 91 | 1012.6 |
| 20260503200903 | 11 | 269 | 6.4 | 16.1 | 0.00 | 0.05 | 0.05 | 91 | 1012.4 |
| 20260503200003 | 11 | 301 | 8.0 | 16.1 | 0.00 | 0.05 | 0.05 | 91 | 1012.4 |
| 20260503195404 | 11 | 294 | 8.0 | 16.1 | 0.00 | 0.05 | 0.05 | 91 | 1012.1 |
| 20260503194504 | 11 | 288 | 8.0 | 17.7 | 0.00 | 0.05 | 0.05 | 91 | 1012.1 |
| 20260503193603 | 11 | 275 | 8.0 | 20.9 | 0.00 | 0.05 | 0.05 | 91 | 1012.0 |
| 20260503192703 | 11 | 267 | 9.7 | 20.9 | 0.00 | 0.05 | 0.05 | 91 | 1011.8 |
| 20260503191804 | 11 | 274 | 8.0 | 22.5 | 0.00 | 0.05 | 0.05 | 91 | 1011.9 |
| 20260503190903 | 11 | 273 | 9.7 | 22.5 | 0.00 | 0.05 | 0.05 | 90 | 1011.8 |
| 20260503190003 | 11 | 260 | 8.0 | 20.9 | 0.00 | 0.05 | 0.05 | 90 | 1011.3 |
| 20260503185403 | 11 | 297 | 8.0 | 20.9 | 0.00 | 0.05 | 0.05 | 89 | 1011.4 |
| 20260503184503 | 12 | 269 | 8.0 | 16.1 | 0.00 | 0.05 | 0.05 | 89 | 1011.2 |
| 20260503183603 | 12 | 255 | 6.4 | 12.9 | 0.00 | 0.05 | 0.05 | 89 | 1011.4 |
| 20260503182918 | 12 | 266 | 6.4 | 14.5 | 0.00 | 0.05 | 0.05 | 89 | 1011.2 |
| 20260503181804 | 12 | 288 | 8.0 | 17.7 | 0.00 | 0.05 | 0.05 | 88 | 1011.1 |
| 20260503180904 | 12 | 272 | 8.0 | 22.5 | 0.00 | 0.05 | 0.05 | 88 | 1010.8 |
| 20260503180003 | 12 | 273 | 8.0 | 14.5 | 0.00 | 0.05 | 0.05 | 88 | 1011.0 |
| 20260503175404 | 12 | 284 | 8.0 | 17.7 | 0.00 | 0.05 | 0.05 | 88 | 1010.9 |
| 20260503174504 | 12 | 283 | 9.7 | 20.9 | 0.00 | 0.05 | 0.05 | 87 | 1010.9 |
| 20260503173603 | 12 | 260 | 9.7 | 20.9 | 0.00 | 0.05 | 0.05 | 86 | 1011.1 |
| 20260503172703 | 12 | 255 | 9.7 | 17.7 | 0.00 | 0.05 | 0.05 | 85 | 1010.9 |
| 20260503172018 | 13 | 283 | 9.7 | 22.5 | 0.00 | 0.05 | 0.05 | 85 | 1011.0 |
| 20260503171118 | 13 | 267 | 11.3 | 22.5 | 0.00 | 0.05 | 0.05 | 84 | 1010.9 |
| 20260503150903 | 13 | 265 | 4.8 | 11.3 | 0.00 | 0.05 | 0.05 | 87 | 1010.5 |
| 20260503140218 | 12 | 258 | 4.8 | 11.3 | 0.00 | 0.05 | 0.05 | 90 | 1010.6 |
| 20260503130903 | 11 | 277 | 6.4 | 12.9 | 0.00 | 0.08 | 0.05 | 92 | 1010.9 |
| 20260503080903 | 10 | 282 | 9.7 | 20.9 | 0.00 | 0.20 | 0.00 | 91 | 1010.7 |
| 20260503072703 | 10 | 269 | 9.7 | 17.7 | 0.00 | 0.23 | 0.00 | 90 | 1010.5 |
| 20260503071804 | 10 | 268 | 9.7 | 17.7 | 0.00 | 0.23 | 0.00 | 90 | 1010.4 |
| 20260503071118 | 10 | 265 | 9.7 | 17.7 | 0.00 | 0.28 | 0.00 | 90 | 1010.4 |
| 20260503054503 | 10 | 292 | 8.0 | 16.1 | 0.00 | 0.86 | 0.00 | 91 | 1009.8 |
| 20260503053817 | 10 | 287 | 8.0 | 16.1 | 0.00 | 0.86 | 0.00 | 91 | 1009.8 |
| 20260503052918 | 10 | 286 | 6.4 | 16.1 | 0.00 | 0.86 | 0.00 | 92 | 1009.9 |
| 20260503051803 | 10 | 272 | 6.4 | 14.5 | 0.00 | 0.86 | 0.00 | 92 | 1009.7 |
| 20260503050903 | 10 | 292 | 4.8 | 12.9 | 0.00 | 0.86 | 0.00 | 92 | 1009.8 |
| 20260503050003 | 10 | 287 | 6.4 | 12.9 | 0.00 | 0.86 | 0.00 | 92 | 1009.7 |
| 20260503045404 | 10 | 277 | 6.4 | 12.9 | 0.00 | 0.86 | 0.00 | 92 | 1009.8 |
| 20260503044503 | 10 | 283 | 4.8 | 11.3 | 0.00 | 0.86 | 0.00 | 92 | 1009.6 |
| 20260503043603 | 10 | 277 | 4.8 | 11.3 | 0.00 | 0.89 | 0.00 | 92 | 1009.6 |
| 20260503042703 | 10 | 283 | 6.4 | 12.9 | 0.00 | 0.89 | 0.00 | 92 | 1009.6 |
| 20260503041803 | 10 | 280 | 6.4 | 16.1 | 0.00 | 0.89 | 0.00 | 92 | 1009.8 |
| 20260503040903 | 10 | 289 | 8.0 | 14.5 | 0.00 | 0.89 | 0.00 | 92 | 1009.8 |
| 20260503040218 | 10 | 273 | 6.4 | 14.5 | 0.00 | 0.91 | 0.00 | 92 | 1009.9 |
| 20260503035403 | 10 | 262 | 6.4 | 11.3 | 0.00 | 0.91 | 0.00 | 92 | 1009.9 |
| 20260503034503 | 10 | 262 | 6.4 | 12.9 | 0.00 | 0.91 | 0.00 | 91 | 1009.8 |
| 20260503033603 | 10 | 271 | 8.0 | 14.5 | 0.00 | 0.91 | 0.00 | 91 | 1010.0 |
| 20260503032704 | 10 | 288 | 6.4 | 14.5 | 0.00 | 0.91 | 0.00 | 92 | 1009.9 |
| 20260503031803 | 10 | 269 | 8.0 | 16.1 | 0.00 | 0.94 | 0.00 | 91 | 1009.9 |
| 20260503030903 | 10 | 294 | 8.0 | 17.7 | 0.00 | 0.97 | 0.00 | 91 | 1009.9 |
| 20260503030003 | 10 | 272 | 6.4 | 17.7 | 0.00 | 1.02 | 0.00 | 91 | 1009.6 |
| 20260503025403 | 10 | 274 | 8.0 | 20.9 | 0.00 | 1.02 | 0.00 | 91 | 1010.0 |
| 20260503024503 | 10 | 292 | 8.0 | 16.1 | 0.00 | 1.02 | 0.00 | 91 | 1010.0 |
| 20260503023604 | 10 | 292 | 9.7 | 16.1 | 0.00 | 1.02 | 0.00 | 91 | 1010.0 |
| 20260503022703 | 10 | 291 | 9.7 | 17.7 | 0.00 | 1.02 | 0.00 | 91 | 1010.1 |
| 20260503021803 | 10 | 277 | 6.4 | 14.5 | 0.00 | 1.02 | 0.00 | 91 | 1010.0 |
| 20260503020903 | 10 | 263 | 6.4 | 14.5 | 0.00 | 1.02 | 0.00 | 91 | 1010.1 |
| 20260503020003 | 10 | 272 | 6.4 | 14.5 | 0.00 | 1.02 | 0.00 | 91 | 1010.0 |
| 20260503015403 | 10 | 283 | 6.4 | 16.1 | 0.00 | 1.02 | 0.00 | 91 | 1010.2 |
| 20260503014503 | 10 | 285 | 6.4 | 12.9 | 0.00 | 1.02 | 0.00 | 91 | 1010.2 |
| 20260503013603 | 10 | 271 | 6.4 | 14.5 | 0.00 | 1.02 | 0.00 | 91 | 1010.1 |
| 20260503012703 | 10 | 260 | 4.8 | 11.3 | 0.00 | 1.02 | 0.00 | 91 | 1010.2 |
| 20260503011803 | 10 | 277 | 4.8 | 12.9 | 0.00 | 1.02 | 0.00 | 91 | 1010.4 |
| 20260503011118 | 10 | 290 | 6.4 | 12.9 | 0.00 | 1.02 | 0.00 | 91 | 1010.2 |
| 20260503010003 | 10 | 287 | 8.0 | 14.5 | 0.00 | 1.02 | 0.00 | 91 | 1010.2 |
| 20260503005403 | 10 | 286 | 8.0 | 12.9 | 0.00 | 1.02 | 0.00 | 91 | 1010.3 |
| 20260503004503 | 10 | 273 | 6.4 | 11.3 | 0.00 | 1.02 | 0.00 | 91 | 1010.3 |
| 20260503003603 | 10 | 267 | 4.8 | 16.1 | 0.00 | 1.02 | 0.00 | 91 | 1010.2 |
| 20260503002703 | 10 | 290 | 6.4 | 14.5 | 0.00 | 1.02 | 0.00 | 91 | 1010.2 |
| 20260503001803 | 10 | 278 | 6.4 | 14.5 | 0.00 | 1.02 | 0.00 | 91 | 1010.0 |
| 20260503000903 | 10 | 284 | 6.4 | 14.5 | 0.00 | 1.02 | 0.00 | 91 | 1010.1 |
| 20260503000003 | 10 | 280 | 6.4 | 14.5 | 0.00 | 1.02 | 0.00 | 91 | 1010.1 |
| 20260502235403 | 10 | 272 | 6.4 | 14.5 | 0.00 | 1.02 | 0.00 | 91 | 1010.3 |
| 20260502234717 | 10 | 286 | 6.4 | 12.9 | 0.00 | 1.02 | 0.00 | 91 | 1010.3 |
| 20260502233603 | 10 | 312 | 6.4 | 12.9 | 0.00 | 1.02 | 0.00 | 91 | 1010.1 |
| 20260502232703 | 10 | 290 | 8.0 | 14.5 | 0.00 | 1.02 | 0.00 | 91 | 1010.1 |
| 20260502231803 | 10 | 285 | 8.0 | 14.5 | 0.00 | 1.02 | 0.00 | 91 | 1010.3 |
| 20260502230903 | 10 | 283 | 6.4 | 14.5 | 0.00 | 1.02 | 0.00 | 91 | 1010.1 |
| 20260502230004 | 10 | 294 | 8.0 | 12.9 | 0.00 | 1.02 | 0.00 | 91 | 1010.1 |
| 20260502225403 | 11 | 273 | 6.4 | 12.9 | 0.00 | 1.02 | 1.02 | 91 | 1010.1 |
| 20260502224717 | 11 | 263 | 6.4 | 12.9 | 0.00 | 1.02 | 1.02 | 91 | 1010.0 |
| 20260502223818 | 11 | 291 | 4.8 | 12.9 | 0.00 | 1.02 | 1.02 | 91 | 1010.2 |
| 20260502222703 | 11 | 267 | 6.4 | 12.9 | 0.00 | 1.02 | 1.02 | 91 | 1010.2 |
| 20260502221804 | 11 | 288 | 6.4 | 14.5 | 0.00 | 1.02 | 1.02 | 91 | 1009.9 |
| 20260502220904 | 11 | 276 | 6.4 | 12.9 | 0.00 | 1.02 | 1.02 | 90 | 1010.1 |
| 20260502220218 | 11 | 275 | 6.4 | 11.3 | 0.00 | 1.02 | 1.02 | 90 | 1010.1 |
| 20260502215403 | 11 | 260 | 4.8 | 11.3 | 0.00 | 1.02 | 1.02 | 90 | 1010.0 |
| 20260502214503 | 11 | 278 | 6.4 | 16.1 | 0.00 | 1.02 | 1.02 | 90 | 1009.9 |
| 20260502213818 | 11 | 281 | 4.8 | 16.1 | 0.00 | 1.02 | 1.02 | 90 | 1009.9 |
| 20260502212703 | 11 | 286 | 4.8 | 11.3 | 0.00 | 1.02 | 1.02 | 90 | 1010.1 |
| 20260502211803 | 11 | 268 | 6.4 | 12.9 | 0.00 | 1.02 | 1.02 | 90 | 1010.0 |
| 20260502210903 | 11 | 288 | 4.8 | 11.3 | 0.00 | 1.02 | 1.02 | 91 | 1009.9 |
| 20260502210003 | 11 | 288 | 3.2 | 6.4 | 0.00 | 1.02 | 1.02 | 90 | 1009.9 |
| 20260502205403 | 11 | 283 | 3.2 | 6.4 | 0.00 | 1.02 | 1.02 | 90 | 1010.0 |